Location: La Fredeussais
(48.1780°N, 1.3980°W)
Time: 18:40:20
(UTC+00:00)

USA 215 - Pass Details

Date: 09 May 2021
Orbit: 1100 x 1107 km, 123.0° (Epoch: 14 June)

Event Time Altitude Azimuth Distance (km) Brightness Sun altitude
Rises 21:11:51 0° 79° (ENE) 3,918 5.9 -14.1°
Reaches altitude 10° 21:14:27 10° 72° (ENE) 2,961 5.3 -14.3°
Maximum altitude 21:20:30 42° 5° (N) 1,532 4.4 -15.0°
Drops below altitude 10° 21:26:32 10° 298° (WNW) 2,965 6.6 -15.6°
Sets 21:29:09 0° 291° (WNW) 3,925 7.2 -15.9°
